Вернуться в каталог

TITAN 3C TRANSTAGE DEB

LostHEO
NORAD 5457·DEBRIS·🇺🇸 United States

Запущен Dec 21, 1965 с Cape Canaveral Space Force Station

Loading…

Ближайшие Пролёты (ближайшие 24 часа)

TLE

УстаревшееSource: Space-Track

Эпоха: Jul 22, 2025, 06:38 UTC

1 05457U 65108J   25203.27664378 -.00000135  00000-0 -17694-2 0  9996
2 05457  27.0877 161.3859 6625637 189.9418 354.3137  2.71295085  5563

Отслеживайте TITAN 3C TRANSTAGE DEB в реальном времени с AllMySat

Download on the App Store